STARLINK-34407

Last updated on Thu Jul 03 2025 00:02:06 GMT+0000 (Coordinated Universal Time)

1 64347U 25126D 25183.58335648 -.01408782 00000+0 -17027-1 0 9990 2 64347 69.9994 310.2332 0003398 268.9339 299.7911 15.63225526 4323
UTC large
Height (km)
Speed (km/s)
/
Latitude / Longitude
Inclination (degrees)
Orbital Period (minutes)
Azimuth
Elevation
Range (km)
Doppler Factor

Next 0 passes for location: London (51.5072 / 0.1276)

Sorry there are no passes over London.